Orbital Elements at Epoch 2459200.5 (2020-Dec-17.0) TDB
Reference: JPL 35 (heliocentric ecliptic J2000)
Element | Value | Uncertainty (1-sigma) | Units |
e | .1091294410652751 | 2.4303e-08 | |
a | 2.548796297407027 | 9.3539e-09 | au |
q | 2.270647582081755 | 6.0978e-08 | au |
i | 4.258698275691041 | 4.7311e-06 | deg |
node | 163.7977710479688 | 4.805e-05 | deg |
peri | 116.8936035499621 | 5.5841e-05 | deg |
M | 171.4753048042277 | 2.7407e-05 | deg |
tp | 2458492.553888033634 (2019-Jan-09.05388803) | 0.00011302 | TDB |
period | 1486.281657868255 4.07 | 8.1819e-06 2.24e-08 | d yr |
n | .2422151939332557 | 1.3334e-09 | deg/d |
Q | 2.826945012732298 | 1.0375e-08 | au |
|
| | Orbit Determination Parameters
Additional Information
|